SL-16 DEB, 22387

Orbit data source: Space-Track

SL-16 DEB, 22387 is space debris in LEO originally from a launch on Fri, 25 Dec 1992 UTC launched from the Tyuratam Missile And Space Complex (TTMTR). Debris objects in space refer to the collection of defunct objects orbiting the Earth. Examples of debris include non-operational satellites, rocket bodies, and fragments generated from explosions, collisions, or faulty payload assembly.

Loading next visibility...
Identifier
22387, 1992-093CC
Orbit
LEO
Country
Flag of CISCIS
Related business
Manufacturer
Unknown
Mission
Spacecraft
Bus & Motor
Unknown
Mass
Unknown
Launch date (UTC)
1992-12-25 (33 years ago)
Launch vehicle
Unknown
Launch site
Tyuratam Missile And Space Complex (TTMTR)
Object type
Payload
Rocket body
Debris
Shape & HBR
Unknown shape, 0.1 m
Radar Cross Section
Small (<0.1 m²)

Expand to show TLE details & history
Last TLE update: 1 day ago

TLE from 1 day ago
0 SL-16 DEB
1 22387U 92093CC  25305.42039615  .00001405  00000-0  83019-3 0  9994
2 22387  70.8907  47.7238 0104486 142.9328 289.0761 14.06810336674910
Epoch: 2025-11-01T10:05Z
TLE epoch observation values (Epoch: 2025-11-01T10:05:22.227Z)
Latitude
63.32396°
Longitude
-101.2597°
Altitude
856.602 km
Speed
7.443 km/s
True Right ascension
06h 04m 08s
True Declination
63° 11' 15"
Sunlit
Object was in full shadow at epoch
Visualization orbit readout
Latitude
Unknown
Longitude
Unknown
Altitude
Unknown
Speed
Unknown
Apparent Right ascension
Unknown
Apparent Declination
Unknown
Sunlit
N/A
Visualization observer readout
Local Sidereal Time
12:18:16
Azimuth
Unknown
Elevation
Unknown
Doppler factor
Unknown
Orbital elements
Apogee altitude
943.965 km
Perigee altitude
792.536 km
Semi-major axis
7,246.388 km
Eccentricity
0.01045
Inclination
70.8907°
RAAN
47.7238°
Arg. of periapsis
142.9328°
True anomaly
287.93975°
Mean anomaly
289.0761°
Eccentric anomaly
288.5084°
Mean motion
3.51853 °/min
Orbital period
102.32 mins
BSTAR
0.00083019
Loading maneuver chart data...
Computing Atmospheric mass density...
Loading historical data...
Loading historical data...
Loading historical data...
Loading historical data...
Loading historical data...
Loading historical data...
Loading historical data...

Documentation

Showing up to 5 results
|